Weather in Mankovo

Russia / Zabaykalsky Krai     50°51′23″N   117°42′37″E
temp.,
°C
wind,
m/s
gust,
m/s
humid.,
%
clouds,
%
prec.,
mm/h
press.,
hPa
HPBL,
m
15 april, thu
thu1500:00−2nw1142100 0.0 101010
03:00−3nne2244100 0.0 100911
06:00−3nne1144100 0.0 100911
09:000e1136100 0.0 1008292
12:00+2e3331100 0.0 10072087
15:00+3ene3426100 0.0 10062517
18:00+3nne4622100 0.0 10062357
21:00−1n2429100 0.0 100979
16 april, fri
fri1600:00−3n3534100 0.0 1010122
03:00−4n3440100 0.0 101266
06:00−5nnw3444100 0.0 101269
09:000n5939100 0.0 10131093
12:00+3nne6929100 0.0 10132817
15:00+5nne7823100 0.0 10123048
18:00+5n5618100 0.0 10132804
21:000nnw33305 0.0 101728
17 april, sat
sat1700:00−2nw22343 0.0 101711
03:00−2wsw11340 0.0 101710
06:00−3sw22355 0.0 101613
09:00+3sw37285 0.0 1014593
12:00+8wsw67290 0.0 10111201
15:00+11w68255 0.0 10081565
18:00+12w68245 0.0 10061737
21:00+6sw22383 0.0 100914
18 april, sun
sun1800:00+5ssw33411 0.0 100920
03:00+3ssw22484 0.0 100917
06:00+2ssw11525 0.0 100910
09:00+7sse213728 0.0 1008245
12:00+12sse342813 0.0 10061011
15:00+15s352397 0.0 10032742
18:00+15s4523100 0.0 10022695
21:00+9s333699 0.0 100449
19 april, mon
mon1900:00+6s224865 0.0 100517
03:00+5sw115791 0.0 100611
06:00+6nw496299 0.0 1008322
09:00+5nnw912421 0.0 1012999
12:00+7nw8112361 0.0 10131560
15:00+8nnw810190 0.0 10151995
18:00+7nnw79150 0.0 10172056
21:00+2n22230 0.0 102125